Savognin, Switzerland 16 day weather forecast

Slopes altitude range -1 m - -1m

Number of lifts: -1 Pistes: -1km

In some cases the lift and piste totals shown are for the ski domain (e.g. Three Valleys) rather than individual resort (e.g. Courchevel)

Overview

The 16 day weather forecast is fully updated 4 times every day.

    • Wed 26 JUN 2019
    • Wed 26
    • 18C 24C
    • Thu 27 JUN 2019
    • Thu 27
    • 18C 23C
    • Fri 28 JUN 2019
    • Fri 28
    • 15C 21C
    • Sat 29 JUN 2019
    • Sat 29
    • 13C 18C
    • Sun 30 JUN 2019
    • Sun 30
    • 16C 22C
    • Mon 01 JUL 2019
    • Mon 01
    • 18C 22C
    • Tue 02 JUL 2019
    • Tue 02
    • 14C 17C
    • Wed 03 JUL 2019
    • Wed 03
    • 12C 14C
    • Thu 04 JUL 2019
    • Thu 04
    • 15C 20C
    • Fri 05 JUL 2019
    • Fri 05
    • 16C 21C
    • Sat 06 JUL 2019
    • Sat 06
    • 8C 12C
    • Sun 07 JUL 2019
    • Sun 07
    • 11C 19C
    • Mon 08 JUL 2019
    • Mon 08
    • 15C 22C
    • Tue 09 JUL 2019
    • Tue 09
    • 16C 20C
    • Wed 10 JUL 2019
    • Wed 10
    • 16C 18C
    • Thu 11 JUL 2019
    • Thu 11
    • 16C 21C

Date:

Time Type 0°C level Temp Chill Snow Cloud Speed Gust Dir Press
3:00 4641m 10°C 10_1 0cm 0% 1mph 3mph 1025mB
6:00 4589m 10°C 10_3 0cm 0% 3mph 4mph 1026mB
9:00 4616m 18°C 18_6 0cm 0% 6mph 6mph 1025mB
12:00 4633m 24°C 24_8 0cm 0% 8mph 10mph 1024mB
15:00 4594m 24°C 24_10 0cm 0% 10mph 16mph 1024mB
18:00 4614m 24°C 24_6 0cm 0% 6mph 7mph 1025mB
21:00 4606m 12°C 12_3 0cm 0% 3mph 4mph 1026mB
0:00 4603m 11°C 11_4 0cm 0% 4mph 5mph 1026mB
3:00 4581m 10°C 10_2 0cm 6% 2mph 4mph 1025mB
6:00 4573m 10°C 10_6 0cm 3% 6mph 7mph 1024mB
9:00 4556m 18°C 18_8 0cm 0% 8mph 9mph 1023mB
12:00 4528m 23°C 23_10 0cm 0% 10mph 16mph 1021mB
15:00 4455m 23°C 23_11 0cm 0% 11mph 19mph 1020mB
18:00 4563m 23°C 23_8 0cm 0% 8mph 10mph 1020mB
21:00 4623m 12°C 12_7 0cm 32% 7mph 8mph 1022mB
0:00 4705m 11°C 11_8 0cm 16% 8mph 9mph 1021mB
3:00 4652m 9°C 9_6 0cm 0% 6mph 7mph 1021mB
6:00 4648m 9°C 9_7 0cm 0% 7mph 8mph 1020mB
9:00 4632m 15°C 15_8 0cm 0% 8mph 9mph 1019mB
12:00 4701m 21°C 21_8 0cm 0% 8mph 9mph 1018mB
15:00 4694m 21°C 21_9 0cm 0% 9mph 9mph 1017mB
18:00 4779m 21°C 21_8 0cm 0% 8mph 10mph 1018mB
21:00 4748m 10°C 10_5 0cm 0% 5mph 6mph 1020mB
0:00 4801m 7°C 7_1 0cm 0% 1mph 2mph 1020mB
3:00 4770m 6°C 6_6 0cm 0% 6mph 7mph 1020mB
6:00 4838m 6°C 6_7 0cm 16% 7mph 8mph 1020mB
9:00 4865m 13°C 13_6 0cm 57% 6mph 3mph 1019mB
12:00 4892m 18°C 18_6 0cm 57% 6mph 3mph 1018mB
15:00 4878m 20°C 20_7 0cm 13% 7mph 5mph 1018mB
18:00 4858m 20°C 20_5 0cm 31% 5mph 5mph 1019mB
21:00 4888m 10°C 10_4 0cm 47% 4mph 5mph 1021mB
0:00 4833m 9°C 9_4 0cm 44% 4mph 5mph 1021mB
3:00 4770m 10°C 10_1 0cm 58% 1mph 3mph 1020mB
6:00 4732m 9°C 9_3 0cm 39% 3mph 4mph 1020mB
9:00 4686m 16°C 16_6 0cm 0% 6mph 5mph 1020mB
12:00 4635m 22°C 22_8 0cm 0% 8mph 6mph 1019mB
15:00 4535m 22°C 22_7 0cm 0% 7mph 7mph 1019mB
18:00 4576m 22°C 22_5 0cm 10% 5mph 6mph 1020mB
21:00 4568m 10°C 10_3 0cm 19% 3mph 4mph 1021mB
0:00 4496m 9°C 9_1 0cm 10% 1mph 3mph 1021mB
3:00 4495m 8°C 8_2 0cm 0% 2mph 2mph 1020mB
6:00 4459m 8°C 8_4 0cm 3% 4mph 5mph 1020mB
9:00 4375m 18°C 18_3 0cm 0% 3mph 3mph 1019mB
12:00 4368m 22°C 22_3 0cm 27% 3mph 4mph 1018mB
15:00 4392m 22°C 22_8 0cm 84% 8mph 8mph 1017mB
18:00 4299m 22°C 22_8 0cm 92% 8mph 9mph 1018mB
21:00 4248m 9°C 9_2 0cm 100% 2mph 4mph 1020mB
0:00 4194m 9°C 9_3 0cm 88% 3mph 5mph 1020mB
3:00 4190m 9°C 9_4 0cm 100% 4mph 5mph 1018mB
6:00 4122m 9°C 9_1 0cm 84% 1mph 1mph 1018mB
9:00 4195m 14°C 14_3 0cm 83% 3mph 4mph 1017mB
12:00 4237m 17°C 17_3 0cm 92% 3mph 4mph 1017mB
15:00 4104m 17°C 17_5 0cm 100% 5mph 5mph 1017mB
18:00 4155m 16°C 16_0 0cm 100% 0mph 2mph 1017mB
21:00 4175m 9°C 9_1 0cm 100% 1mph 1mph 1018mB
0:00 4058m 8°C 8_6 0cm 98% 6mph 8mph 1018mB
3:00 4070m 8°C 8_6 0cm 100% 6mph 7mph 1018mB
6:00 3997m 8°C 8_6 0cm 99% 6mph 7mph 1018mB
9:00 4049m 12°C 12_6 0cm 83% 6mph 6mph 1018mB
12:00 3967m 14°C 14_5 0cm 92% 5mph 5mph 1017mB
15:00 3975m 17°C 17_5 0cm 100% 5mph 4mph 1018mB
18:00 4011m 17°C 17_3 0cm 100% 3mph 3mph 1018mB
21:00 4008m 10°C 10_3 0cm 24% 3mph 4mph 1019mB
0:00 3983m 10°C 10_5 0cm 46% 5mph 6mph 1019mB
3:00 3996m 9°C 9_3 0cm 72% 3mph 4mph 1018mB
6:00 4036m 9°C 9_1 0cm 61% 1mph 2mph 1018mB
9:00 3990m 15°C 15_4 0cm 40% 4mph 3mph 1017mB
12:00 4003m 20°C 20_5 0cm 33% 5mph 6mph 1017mB
15:00 3958m 20°C 20_6 0cm 56% 6mph 7mph 1016mB
18:00 4097m 20°C 20_5 0cm 64% 5mph 5mph 1017mB
21:00 4110m 11°C 11_3 0cm 69% 3mph 4mph 1018mB
0:00 4023m 10°C 10_3 0cm 35% 3mph 3mph 1018mB
3:00 3960m 10°C 10_4 0cm 0% 4mph 5mph 1018mB
6:00 4013m 10°C 10_5 0cm 11% 5mph 6mph 1017mB
9:00 3915m 16°C 16_5 0cm 29% 5mph 9mph 1017mB
12:00 4011m 21°C 21_5 0cm 51% 5mph 12mph 1017mB
15:00 4124m 22°C 22_5 0cm 87% 5mph 6mph 1016mB
18:00 3988m 22°C 22_7 0cm 85% 7mph 9mph 1017mB
21:00 4021m 11°C 11_4 0cm 100% 4mph 4mph 1019mB
0:00 3960m 10°C 10_2 0cm 100% 2mph 3mph 1019mB
Afternoon 0.0833333mm 0.3125 3476m 12°C 12_8 0cm 91% 8mph 7mph 1020mB
Morning 0mm 0 3750m 3°C 3_3 0cm 0% 3mph 4mph 1024mB
Afternoon 0mm 0 4386m 19°C 19_5 0cm 0% 5mph 4mph 1020mB
Morning 0mm 0 4440m 8°C 8_2 0cm 71% 2mph 3mph 1021mB
Afternoon 0mm 0 4287m 22°C 22_5 0cm 72% 5mph 6mph 1017mB
Morning 0.0625mm 0.1875 4270m 12°C 12_4 0cm 88% 4mph 5mph 1019mB
Afternoon 0.625mm 1.9375 4300m 20°C 20_5 0cm 87% 5mph 5mph 1017mB
Morning 0.5mm 1.5 4154m 11°C 11_1 0cm 94% 1mph 2mph 1019mB
Afternoon 0.708333mm 2.125 4115m 18°C 18_5 0cm 71% 5mph 6mph 1016mB
Morning 0.0416667mm 0.1875 4004m 10°C 10_2 0cm 55% 2mph 3mph 1017mB
Afternoon 0mm 0.0625 4038m 21°C 21_4 0cm 46% 4mph 5mph 1012mB
Morning 0.0625mm 0.1875 3998m 11°C 11_1 0cm 100% 1mph 2mph 1011mB

16 day outlook at a glance

Forecast issued: 6/26/2019 8:32:53 AM

Chat

Your comments and questions. In a resort? Let us know what it's like!


Characters left 250

For terms and conditions see Readers Comments on the Cookie and privacy policy page.